Regional Weather Roundup
Issued by NWS Wakefield, VA

Home | Current Version | Previous Version | Graphics & Text | Print | Product List | Glossary On
Versions: 1 2 3 4 5 6 7 8 9 10 11 12 13 14 15 16 17 18 19 20 21 22 23 24 25 26 27 28 29 30 31 32 33 34 35 36 37 38 39 40 41 42 43 44 45 46 47 48 49 50
470
ASUS41 KAKQ 200915
RWRAKQ

REGIONAL WEATHER ROUNDUP
NATIONAL WEATHER SERVICE WAKEFIELD VA
400 AM EST FRI JAN 20 2017

Note: "fair" indicates few or no clouds below 12,000 feet with no
significant weather and/or obstructions to visibility. * = Denotes
station may not report precipitation (e.g., rain,snow,etc.),
thunder or fog.

VAZ042-051-052>054-056-201000-
NORTHERN VIRGINIA

CITY           SKY/WX    TMP DP  RH WIND       PRES   REMARKS
WASH NATIONAL  CLOUDY    40  37  89 NE5       29.99F
DULLES         MOCLDY    35  33  92 CALM      29.97F
FORT BELVOIR   CLOUDY    33  31  94 CALM      29.98F
QUANTICO       PTCLDY    38  38 100 CALM      30.00F
FREDERICKSBRG* CLOUDY    37  37 100 CALM      29.97F
STAFFORD*      PTCLDY    33  33 100 CALM      30.02S
WARRENTON      PTCLDY    33  30  92 CALM      29.97S
CULPEPER*      CLOUDY    34  34 100 CALM      29.98F
MANASSAS*      NOT AVBL
LEESBURG*      NOT AVBL
WINCHESTER     CLOUDY    34  32  93 N3        29.93F
FRONT ROYAL*   FAIR      34  34 100 CALM      29.92S
LURAY*         FAIR      37  37 100 CALM      29.91F
$$

VAZ048-049-060>072-079>083-201000-
CENTRAL AND SOUTH CENTRAL VIRGINIA

CITY           SKY/WX    TMP DP  RH WIND       PRES   REMARKS
RICHMOND       CLOUDY    41  39  93 SE5       29.97F
CHESTERFIELD*  FAIR      43  25  49 E5        29.98F
PETERSBURG*    CLOUDY    39  37  93 CALM      29.97F
HANOVER        CLOUDY    41  36  82 VRB3      29.98F
TAPPAHANNOCK*  CLOUDY    41  38  90 SE3       29.99F
QUINTON*       FAIR      40  39  95 MISG      29.98S
CHARLOTTSVILLE CLOUDY    43  39  86 NE5       29.93F
GORDONSVILLE*  CLOUDY    37  37  99 CALM      29.95F
ORANGE*          N/A     37  37 100 CALM      29.97F
LOUISA*        MOCLDY    43  41  93 CALM      29.94F
BUMPASS*       FAIR      38  38  98 CALM      29.96F
FARMVILLE*     CLOUDY    42  41  94 CALM      29.95R
CREWE*         PTSUNNY   40  40 100 CALM      29.95S
FORT PICKETT*  PTSUNNY   42  38  87 S5        29.97R
CHASE CITY*    FAIR      44  43  94 SE3       29.95S
CLARKSVILLE*   FAIR      43  43 100 CALM      29.94S
SOUTH HILL*    CLOUDY    40  40  97 CALM      30.01S
LAWRENCEVILLE* FAIR      41  40  95 SE5       29.97R
EMPORIA*       MOCLDY    37  37 100 CALM      29.99F FOG
$$

VAZ088>098-201000-
SOUTHEAST VIRGINIA

CITY           SKY/WX    TMP DP  RH WIND       PRES   REMARKS
NORFOLK        CLOUDY    42  40  92 SW3       30.00S FOG
VIRGINIA BEACH CLOUDY    40  38  93 SW5       29.99F
NORFOLK NAVAL  CLOUDY    43  40  89 SE5       30.00F
WEST POINT*    PTCLDY    39  37  92 CALM      30.01F
SALUDA*        FAIR      41  38  90 CALM      29.99F
NEWPORT NEWS   CLOUDY    39  37  92 E3        29.99F
LANGLEY AFB    CLOUDY    42  41  96 CALM      29.99F
FORT EUSTIS    CLOUDY    42  38  86 CALM      29.96F
WILLIAMSBURG*  CLOUDY    45  41  87 CALM      29.99F
HR EXEC AP*    FAIR      39  37  93 CALM      29.98F
FRANKLIN*      CLOUDY    42  39  89 CALM      29.99F
US460-WAKEFLD  MOCLDY    42  40  92 CALM      29.98F
$$

VAZ020-022-025-037-045-201000-
WEST CENTRAL AND SOUTHWEST VIRGINIA

CITY           SKY/WX    TMP DP  RH WIND       PRES   REMARKS
STAUNTON*      CLOUDY    40  38  92 CALM      29.92F
WAYNESBORO*    PTSUNNY   45  37  75 CALM      29.90F
HOT SPRINGS VA CLOUDY    43  32  65 S10G20    29.87R
LYNCHBURG      CLOUDY    44  40  85 CALM      29.94F
DANVILLE       CLOUDY    41  40  96 E5        29.92F
SOUTH BOSTON*  FAIR      41  40  95 CALM      29.94F
MARTINSVILLE   CLOUDY    40  38  91 CALM      29.94F
ROANOKE        CLOUDY    47  39  74 SE6       29.92F
BLACKSBURG     CLOUDY    44  39  81 SE5       29.91F
DUBLIN*        CLOUDY    51  39  64 S5        29.86F
MARION*        CLOUDY    51  39  63 NE7       29.86F
HILLSVILLE*    CLOUDY    48  39  69 CALM      29.84F
RICHLANDS*     CLOUDY   N/A N/A N/A S8        29.77F
WISE*          LGT RAIN  52  46  82 S10G16    29.74F
ABINGDON*      LGT RAIN  55  49  80 CALM      29.78F
$$

MDZ021>025-VAZ099-100-201000-
SOUTHERN MARYLAND AND THE DELMARVA PENINSULA

CITY           SKY/WX    TMP DP  RH WIND       PRES   REMARKS
PATUXENT RIVER CLOUDY    34  34 100 CALM      29.99F
BAY BRIDGE APT CLOUDY    37  36  93 CALM      30.00F FOG
LEONARDTOWN    PTCLDY    36  34  93 CALM      30.00F
DOVER          CLEAR     34  34 100 CALM      30.00F
GEORGETOWN     CLOUDY    33  31  92 CALM      30.02F
EASTON         PTCLDY    35  33  90 CALM      30.03F
CAMBRIDGE      CLOUDY    32  32 100 CALM      29.99F
SALISBURY      CLOUDY    32  30  92 E3        30.00F
OCEAN CITY     PTCLDY    33  32  96 CALM      30.01F
WALLOPS ISLAND CLOUDY    35  35 100 CALM      30.02F
ACCOMACK*      CLOUDY    35  34  96 CALM      30.00F
$$

NCZ012>017-030>032-201000-
NORTH CENTRAL AND EASTERN NORTH CAROLINA

CITY           SKY/WX    TMP DP  RH WIND       PRES   REMARKS
ROANOKE RAPIDS FAIR      41  41 100 CALM      29.98S
RALEIGH        CLOUDY    49  42  77 CALM      29.96F
ELIZABETH CITY CLOUDY    45  43  93 CALM      30.00F
AHOSKIE*         N/A     42  41  97 CALM      29.99F FOG
EDENTON*       CLOUDY    46  42  88 CALM      30.01F
CURRITUCK*     CLOUDY    42  42 100 CALM      30.00F FOG
KILL DEVIL HLS NOT AVBL
MANTEO         CLOUDY    42  42 100 CALM      30.01F
CAPE HATTERAS  CLOUDY    48  44  86 NE3       30.01F
TARBORO*       NOT AVBL
GOLDSBORO      CLOUDY    45  45 100 E5        29.95F
WASHINGTON     CLOUDY    43  42  96 E3          N/A
GREENVILLE     CLOUDY    45  45 100 CALM      30.00S
NEW BERN       PTCLDY    42  41  96 CALM      30.00F FOG
WILMINGTON     CLOUDY    51  49  92 E5        29.95F
$$

VAZ048-201000-
ELSEWHERE

CITY           SKY/WX    TMP DP  RH WIND       PRES   REMARKS
HARRISBURG PA  CLOUDY    33  31  92 CALM      29.98F
BALTIMORE      MOCLDY    34  33  96 CALM      29.99F
ANNAPOLIS      CLOUDY    37  34  89 CALM      29.99F
ANDREWS AFB    CLOUDY    36  33  92 CALM      29.98F
PHILADELPHIA   CLOUDY    34  32  92 CALM      30.03F
HENDERSON NC   CLOUDY    44  38  82 S6        29.96R
GREENSBORO     CLOUDY    49  41  74 SE7       29.88F
ROCKY MOUNT    CLOUDY    45  44  97 CALM      29.96F
$$

VAZ100-201000-
MARINE

STATION/POSITION TIME  TEMP    WIND        PRES    WAVE   SWELL
                       AIR SEA DIR/SP/G            HT/PER HT/PER
                 (UTC) (F)     (DEG/KT/KT) (MB)    (FT/S) (FT/S)
CAPE MAY NJ      0848   36 41     CALM     1016.5R
LEWES DE         0842   40 42   CALM  /  1 1016.7R
OCEAN-CITY-INLET 0842   39 42   20/  1/  1 1016.9F
WACHAPREAGUE VA  0848   38 46  360/  2/  4 1015.8F
THOMAS POINT MD  0900   38 39   CALM  /  1   N/A
GOOSES REEF MD   0850   40     110/  4/  6 1016.4F
COVE POINT MD    0848   40     180/  4/  6 1016.4F
SOLOMONS ISLAND  0842   40 41  100/  3/  3   N/A
BISHOPS HEAD MD  0848   40 45  110/  4/  4 1015.9F
PINEY POINT MD   0848          110/  3/  3   N/A
POTOMAC MD       0850   41     130/  4/  6 1014.7F
CAMBRIDGE MD     0848   37 40  140/  2/  3 1015.2F
LEWISETTA VA     0848   42 44  140/  2/  3 1015.4F
RAPPAHANNOCK LGT 0848          130/  5/  6 1016.1F
STINGRAY PT      0850   41     160/  4/  4 1015.9F
YORK RVR RNG VA  0848   44     200/  6/  6 1015.1F
YORKTOWN VA      0848   43 42  160/  3/  3 1015.4F
JAMESTOWN VA     0850   44     130/  6/  8   N/A
DOMINION TERM VA 0848   44     120/  6/  7 1015.5F
KIPTOPEKE VA     0842      43  120/  4/  5   N/A
CHES BAY BRIDGE  0848   43 44  210/  5/  6 1015.7F
CAPE HENRY VA    0848   44     170/  5/  7   N/A
WILLOUBY STN VA  0848   43     150/  5/  5 1016.5F
S CRANEY ISL VA  0848   44     160/  3/  4 1015.6F
CAPE HENRY BUOY  0842      48                N/A     4/11   2/11
OFFSHORE WE BUOY 0851      49                N/A     4/13   3/13
64NM E OF VA BCH 0850   51 56   40/  2/  4 1015.8F   5/12   5/12
DUCK PIER NC     0848   45 45   90/  4/  4 1015.3F
44100 DUCK FRF   0805      47                N/A     5/12   3/12
44056 DUCK FRF   0830      45                N/A     4/11   3/11
OREGON INLET NC  0842   45 49   CALM  /  1 1016.0F
HATTERAS NC      0848   48 55   80/  2/  4 1015.8F
DIAMOND SHLS NC  0850   58 76   40/  2/  8 1016.2R   6/11   5/11
CAPE LOOKOUT NC  0800   54     360/  4/  5 1015.4R
$$




USA.gov is the U.S. government's official web portal to all federal, state and local government web resources and services.